FW0523 Weather Reports


Display with metric or nautical units.
time (UTC)temp
F
wind
direction
speed
MPH
gust
MPH
rain 1hr
in
rain 24hr
in
rain mn
in
humidity
%
barometer
mb
20260902184702 73 134 5.0 11.0 0.00 0.00 0.00 27 1027.1
20260902183702 72 110 3.0 8.0 0.00 0.00 0.00 28 1027.2
20260902182703 72 150 0.0 8.0 0.00 0.00 0.00 28 1027.5
20260902181703 72 210 0.0 5.0 0.00 0.00 0.00 26 1027.5
20260902180703 72 360 1.0 6.0 0.00 0.00 0.00 25 1027.6
20260902175704 72 104 1.0 6.0 0.00 0.00 0.00 25 1027.7
20260902174702 72 54 0.0 1.0 0.00 0.00 0.00 25 1027.7
20260902172604 72 203 3.0 5.0 0.00 0.00 0.00 25 1027.9
20260902171602 73 357 0.0 0.0 0.00 0.00 0.00 25 1027.7
20260902170603 73 329 1.0 6.0 0.00 0.00 0.00 25 1027.7
20260902165603 73 360 1.0 6.0 0.00 0.00 0.00 25 1027.9
20260902164603 72 360 0.0 9.0 0.00 0.00 0.00 27 1027.9
20260902163604 72 360 0.0 6.0 0.00 0.00 0.00 26 1028.0
20260902162604 72 14 1.0 6.0 0.00 0.00 0.00 27 1027.9
20260902161602 72 147 5.0 10.0 0.00 0.00 0.00 26 1027.9
20260902155504 71 232 3.0 9.0 0.00 0.00 0.00 31 1028.0
20260902154502 70 92 5.0 9.0 0.00 0.00 0.00 34 1028.0
20260902153503 69 172 4.0 10.0 0.00 0.00 0.00 35 1028.0
20260902152504 68 360 3.0 10.0 0.00 0.00 0.00 37 1028.1
20260902151502 67 117 3.0 9.0 0.00 0.00 0.00 39 1028.3
20260902150503 66 360 3.0 10.0 0.00 0.00 0.00 42 1028.4
20260902145504 64 360 3.0 9.0 0.00 0.00 0.00 44 1028.4
20260902143404 61 360 4.0 8.0 0.00 0.00 0.00 51 1028.3
20260902142402 60 150 3.0 9.0 0.00 0.00 0.00 51 1028.4
20260902141403 60 360 0.0 10.0 0.00 0.00 0.00 52 1028.4
20260902140404 60 148 1.0 9.0 0.00 0.00 0.00 52 1028.5
20260902135402 60 360 0.0 9.0 0.00 0.00 0.00 52 1028.4
20260902134402 60 360 2.0 4.0 0.00 0.00 0.00 52 1028.5
20260902133403 60 25 2.0 9.0 0.00 0.00 0.00 52 1028.4
20260902131303 60 360 0.0 9.0 0.00 0.00 0.00 53 1028.1
20260902130302 59 360 0.0 6.0 0.00 0.00 0.00 54 1028.3
20260902125305 60 332 1.0 1.0 0.00 0.00 0.00 54 1028.3
20260902124303 60 360 1.0 6.0 0.00 0.00 0.00 53 1028.1
20260902123304 60 360 0.0 9.0 0.00 0.00 0.00 53 1028.0
20260902122305 60 312 1.0 8.0 0.00 0.00 0.00 53 1028.0
20260902121303 60 313 0.0 9.0 0.00 0.00 0.00 53 1028.0
20260902120304 60 360 1.0 6.0 0.00 0.00 0.00 53 1028.0
20260902115306 59 360 1.0 10.0 0.00 0.00 0.00 54 1027.9
20260902114303 59 332 0.0 9.0 0.00 0.00 0.00 55 1028.0
20260902113303 58 360 2.0 9.0 0.00 0.00 0.00 55 1027.9
20260902112305 58 85 0.0 4.0 0.00 0.00 0.00 54 1028.0
20260902111303 58 175 1.0 7.0 0.00 0.00 0.00 53 1028.0
20260902110305 59 164 0.0 2.0 0.00 0.00 0.00 51 1028.1
20260902105306 59 41 0.0 3.0 0.00 0.00 0.00 50 1028.3
20260902104302 59 89 3.0 8.0 0.00 0.00 0.00 49 1028.5
20260902103303 59 319 5.0 14.0 0.00 0.00 0.00 49 1028.5
20260902102307 61 326 0.0 4.0 0.00 0.00 0.00 46 1028.4
20260902101303 61 360 1.0 8.0 0.00 0.00 0.00 45 1027.9
20260902100305 61 360 0.0 4.0 0.00 0.00 0.00 45 1027.6
20260902095306 61 360 0.0 4.0 0.00 0.00 0.00 45 1027.7
20260902094302 61 360 0.0 1.0 0.00 0.00 0.00 45 1027.5
20260902093303 61 360 0.0 9.0 0.00 0.00 0.00 45 1027.7
20260902092305 60 103 1.0 9.0 0.00 0.00 0.00 46 1027.7
20260902090204 59 360 2.0 8.0 0.00 0.00 0.00 48 1027.9
20260902085202 59 360 0.0 7.0 0.00 0.00 0.00 49 1027.9
20260902084203 59 360 1.0 3.0 0.00 0.00 0.00 50 1028.0
20260902083204 59 140 0.0 8.0 0.00 0.00 0.00 50 1028.1
20260902082202 59 158 0.0 10.0 0.00 0.00 0.00 50 1028.3
20260902081203 59 227 0.0 9.0 0.00 0.00 0.00 49 1028.4
20260902075103 58 360 1.0 6.0 0.00 0.00 0.00 49 1028.7
20260902074104 58 318 0.0 3.0 0.00 0.00 0.00 50 1028.7
20260902072004 58 123 0.0 2.0 0.00 0.00 0.00 51 1028.7
20260902071002 58 179 0.0 10.0 0.00 0.00 0.00 49 1028.7
20260902070005 57 360 0.0 2.0 0.00 0.00 0.00 49 1028.7
20260902065004 57 192 0.0 6.0 0.00 0.00 0.00 49 1028.7
20260902064003 57 360 2.0 4.0 0.00 0.00 0.00 51 1028.7
20260902063003 57 360 0.0 10.0 0.00 0.00 0.00 50 1028.8
20260902062004 57 148 2.0 9.0 0.00 0.00 0.00 51 1028.8
20260902055902 58 193 1.0 9.0 0.00 0.00 0.00 48 1028.8
20260902054903 58 360 2.0 9.0 0.00 0.00 0.00 49 1028.9
20260902053903 58 123 0.0 9.0 0.00 0.00 0.00 48 1028.9
20260902052904 59 360 0.0 5.0 0.00 0.00 0.00 47 1028.9
20260902051902 59 360 0.0 2.0 0.00 0.00 0.00 46 1028.8
20260902050905 59 359 2.0 8.0 0.00 0.00 0.00 47 1028.5
20260902045903 59 360 1.0 10.0 0.00 0.00 0.00 46 1028.5
20260902044902 59 66 0.0 3.0 0.00 0.00 0.00 48 1028.7
20260902043903 59 223 0.0 3.0 0.00 0.00 0.00 47 1028.8
20260902042903 59 360 0.0 8.0 0.00 0.00 0.00 47 1028.9
20260902041902 60 52 0.0 2.0 0.00 0.00 0.00 48 1028.8
20260902040903 60 360 0.0 3.0 0.00 0.00 0.00 48 1028.9
20260902035903 60 360 0.0 0.0 0.00 0.00 0.00 48 1028.7
20260902034904 61 360 0.0 3.0 0.00 0.00 0.00 49 1028.7
20260902033902 61 140 2.0 4.0 0.00 0.00 0.00 51 1028.4
20260902031803 62 360 0.0 1.0 0.00 0.00 0.00 51 1028.0
20260902030803 63 8 2.0 3.0 0.00 0.00 0.00 50 1027.7
20260902025804 63 360 2.0 6.0 0.00 0.00 0.00 51 1027.6
20260902024803 64 356 0.0 2.0 0.00 0.00 0.00 52 1027.3
20260902023803 64 360 0.0 0.0 0.00 0.00 0.00 53 1027.2
20260902022804 65 198 1.0 0.0 0.00 0.00 0.00 51 1027.1
20260902015604 66 360 0.0 10.0 0.00 0.00 0.00 51 1026.4
20260902014603 66 360 4.0 10.0 0.00 0.00 0.00 51 1026.4
20260902011402 68 360 2.0 9.0 0.00 0.00 0.00 49 1026.4
20260902010403 68 360 1.0 10.0 0.00 0.00 0.00 48 1026.5
20260902005404 68 69 4.0 8.0 0.00 0.00 0.00 47 1026.4
20260902004402 69 360 1.0 9.0 0.00 0.00 0.00 46 1026.5
20260902003403 69 360 0.0 10.0 0.00 0.00 0.00 46 1026.5
20260902002403 69 360 3.0 10.0 0.00 0.00 0.00 45 1026.5
20260902001402 69 186 0.0 10.0 0.00 0.00 0.00 45 1026.5
20260902000406 70 360 0.0 9.0 0.00 0.00 0.00 44 1026.5
20260901235403 70 360 0.0 10.0 0.00 0.00 0.00 43 1026.7
20260901234403 70 360 1.0 9.0 0.00 0.00 0.00 42 1026.7
20260901233403 70 360 0.0 9.0 0.00 0.00 0.00 40 1026.7
20260901232404 71 360 1.0 9.0 0.00 0.00 0.00 40 1026.8
20260901230304 71 360 1.0 3.0 0.00 0.00 0.00 41 1026.9
20260901225306 71 188 2.0 8.0 0.00 0.00 0.00 42 1027.1
20260901224302 70 360 2.0 9.0 0.00 0.00 0.00 42 1027.1
20260901223303 70 150 4.0 9.0 0.00 0.00 0.00 43 1027.1
20260901221202 71 360 4.0 9.0 0.00 0.00 0.00 43 1027.1
20260901220202 71 360 0.0 8.0 0.00 0.00 0.00 45 1027.1
20260901215203 71 360 2.0 7.0 0.00 0.00 0.00 43 1027.2
20260901214203 71 45 0.0 2.0 0.00 0.00 0.00 39 1027.2
20260901212102 72 360 4.0 10.0 0.00 0.00 0.00 35 1027.2
20260901211103 72 311 3.0 9.0 0.00 0.00 0.00 35 1027.3
20260901210104 73 7 3.0 10.0 0.00 0.00 0.00 33 1027.5
20260901205103 74 359 4.0 11.0 0.00 0.00 0.00 31 1027.6
20260901204104 74 333 4.0 7.0 0.00 0.00 0.00 32 1027.7
20260901203102 74 332 2.0 6.0 0.00 0.00 0.00 33 1027.6
20260901202102 73 322 7.0 13.0 0.00 0.00 0.00 33 1027.7
20260901201103 74 16 4.0 7.0 0.00 0.00 0.00 34 1028.0
20260901200103 73 360 4.0 8.0 0.00 0.00 0.00 33 1028.0
20260901195103 72 299 4.0 6.0 0.00 0.00 0.00 33 1028.1
20260901194104 72 308 3.0 6.0 0.00 0.00 0.00 32 1028.0
20260901193102 72 65 3.0 6.0 0.00 0.00 0.00 32 1028.0
20260901192103 73 340 7.0 12.0 0.00 0.00 0.00 31 1028.1
20260901191103 72 343 4.0 9.0 0.00 0.00 0.00 34 1028.3
20260901190104 71 25 2.0 7.0 0.00 0.00 0.00 34 1028.4